Altus AFB, OK

10:46 PM CDT on August 23, 2017 (GMT -0500)
Altus Air Force Base

Weather History for KLTS - June, 2013

Change the Weather History Date:

Sunday, June 23, 2013

  Actual Average Record
Temperature  
Mean Temperature 86 °F -  
Max Temperature 99 °F 89 °F 106 °F (2011)
Min Temperature 73 °F 68 °F 60 °F (2004)
Cooling Degree Days 21    
Growing Degree Days 36 (Base 50)    
Moisture  
Dew Point 60 °F    
Average Humidity 46    
Maximum Humidity 73    
Minimum Humidity 22    
Precipitation  
Precipitation 0.00 in - - ()
Sea Level Pressure  
Sea Level Pressure 29.82 in    
Wind  
Wind Speed 16 mph (SSE)    
Max Wind Speed 32 mph    
Max Gust Speed 39 mph    
Visibility 10 miles    
Events Rain , Thunderstorm    
Averages and records for this station are not official NWS values.
T = Trace of Precipitation, MM = Missing Value Source: NWS Daily Summary

Daily Weather History Graph

Daily Weather History Graph

Search for Another Location

Airport or City:

Trip Planner

Search our weather history database for the weather conditions in past years. The results will help you decide how hot, cold, wet, or windy it might be!

Date:

Astronomy

Jun. 23, 2013 Rise Set
Actual Time 6:24 AM CDT 8:53 PM CDT
Civil Twilight 5:55 AM CDT 9:23 PM CDT
Nautical Twilight 5:18 AM CDT 9:59 PM CDT
Astronomical Twilight 4:38 AM CDT 10:39 PM CDT
Moon 9:11 PM CDT (6/23) 6:41 AM CDT (6/23)
Length of Visible Light 15h 27m
Length of Day
14h 28m
Full, 100% of the Moon is Illuminated
Jun 23
Full
Jun 29
Last Quarter
Jul 8
New
Jul 15
First Quarter
Jul 22
Full

Hourly Weather History & Observations

Time (CDT) Temp. Heat Index Dew Point Humidity Pressure Visibility Wind Dir Wind Speed Gust Speed Precip Events Conditions
12:58 AM 80.1 °F 81.0 °F 60.6 °F 51% 29.82 in 10.0 mi SE 12.7 mph - N/A   Clear
1:58 AM 77.7 °F - 60.6 °F 55% 29.82 in 10.0 mi SE 12.7 mph - N/A   Partly Cloudy
2:58 AM 77.2 °F - 60.4 °F 56% 29.82 in 10.0 mi SSE 9.2 mph - N/A   Clear
3:58 AM 75.0 °F - 61.0 °F 62% 29.82 in 10.0 mi SSE 5.8 mph - N/A   Partly Cloudy
4:58 AM 73.0 °F - 61.9 °F 68% 29.82 in 10.0 mi SE 8.1 mph - N/A   Scattered Clouds
5:57 AM 75.2 °F - 62.6 °F 65% 29.88 in 10.0 mi SSE 13.8 mph - N/A Thunderstorm Thunderstorm
5:58 AM 75.2 °F - 62.2 °F 64% 29.83 in 10.0 mi SSE 13.8 mph - N/A Thunderstorm Thunderstorm
5:59 AM 75.2 °F - 62.6 °F 65% 29.88 in 10.0 mi SSE 15.0 mph - N/A Rain , Thunderstorm Light Thunderstorms and Rain
6:14 AM 73.4 °F - 64.4 °F 73% 29.88 in 10.0 mi SSE 18.4 mph - N/A Thunderstorm Thunderstorm
6:19 AM 73.4 °F - 64.4 °F 73% 29.88 in 10.0 mi SSE 20.7 mph - N/A   Scattered Clouds
6:58 AM 74.8 °F - 63.3 °F 67% 29.82 in 10.0 mi South 12.7 mph - 0.00 in   Partly Cloudy
7:58 AM 77.5 °F - 63.9 °F 63% 29.84 in 10.0 mi South 13.8 mph - N/A   Scattered Clouds
8:58 AM 79.0 °F - 64.8 °F 62% 29.84 in 10.0 mi SSE 16.1 mph - N/A   Partly Cloudy
9:58 AM 82.9 °F 84.6 °F 64.6 °F 54% 29.84 in 10.0 mi South 25.3 mph 32.2 mph N/A   Partly Cloudy
10:58 AM 87.4 °F 87.7 °F 61.7 °F 42% 29.84 in 10.0 mi South 25.3 mph 31.1 mph N/A   Clear
11:58 AM 89.6 °F 88.9 °F 59.0 °F 36% - 10.0 mi South 21.9 mph 34.5 mph N/A   Scattered Clouds
12:58 PM 93.9 °F 93.2 °F 58.8 °F 31% 29.81 in 10.0 mi South 32.2 mph 36.8 mph N/A   Partly Cloudy
1:58 PM 96.1 °F 95.2 °F 57.6 °F 28% 29.80 in 10.0 mi SSE 21.9 mph 33.4 mph N/A   Partly Cloudy
2:58 PM 97.7 °F 96.3 °F 55.8 °F 25% 29.78 in 10.0 mi SSE 23.0 mph 31.1 mph N/A   Clear
3:58 PM 99.3 °F 97.4 °F 54.3 °F 22% 29.77 in 10.0 mi SSE 26.5 mph 33.4 mph N/A   Clear
4:58 PM 99.9 °F 98.1 °F 54.9 °F 22% 29.76 in 10.0 mi South 23.0 mph 39.1 mph N/A   Clear
5:58 PM 98.8 °F 97.0 °F 55.0 °F 23% 29.75 in 10.0 mi South 20.7 mph 32.2 mph N/A   Clear
6:58 PM 97.2 °F 94.9 °F 54.1 °F 23% 29.75 in 10.0 mi South 24.2 mph 32.2 mph N/A   Clear
7:58 PM 94.8 °F 93.1 °F 55.9 °F 27% 29.76 in 10.0 mi SSE 21.9 mph 28.8 mph N/A   Clear
8:58 PM 90.9 °F 89.7 °F 57.7 °F 33% 29.77 in 10.0 mi SE 19.6 mph 26.5 mph N/A   Clear
9:58 PM 88.9 °F 87.3 °F 55.9 °F 33% 29.79 in 10.0 mi SSE 18.4 mph 26.5 mph N/A   Clear
10:58 PM 86.5 °F 84.7 °F 54.0 °F 33% 29.83 in 10.0 mi SSE 18.4 mph - N/A   Clear
11:58 PM 84.7 °F 83.3 °F 54.5 °F 35% 29.89 in 10.0 mi SSE 18.4 mph - N/A   Clear